Terug naar catalogus

STARLINK-35377

ActiefCommunicatieVLEO
NORAD 66185·PAYLOAD·🇺🇸 United States

Gelanceerd Oct 26, 2025 vanaf Cape Canaveral Space Force Station

Loading…

Volgende Passages (komende 24 uur)

TLE

VersSource: CelesTrak SupGP

Epoch: Sep 14, 2026, 22:50 UTC

1 66185C 25243J   26257.95187500  .00043736  00000+0  12924-2 0  2578
2 66185  53.1585  83.4006 0001260  77.7929 132.9827 15.34363424    14

Volg STARLINK-35377 in realtime met AllMySat

Download on the App Store